Location: Albany
(35.0000°S, 118.0000°E)
Time: 03:31:06
(UTC-05:00)

Cosmos 1933 - Visible Passes

Search period start: 29 November 2014 00:00
Search period end: 09 December 2014 00:00
Orbit: 555 x 571 km, 82.5° (Epoch: 28 November)

Date Brightness Start Highest point End Pass type
(mag) Time Alt. Az. Time Alt. Az. Time Alt. Az.
29 Nov 5.1 12:54:38 25° E 12:54:57 25° E 12:58:19 10° SE visible
29 Nov 5.0 14:30:38 17° W 14:31:35 19° WSW 14:34:31 10° SSW visible
30 Nov 4.8 12:54:38 31° E 12:54:40 31° E 12:58:18 10° SSE visible
30 Nov 5.2 14:30:38 15° W 14:31:24 15° WSW 14:33:53 10° SW visible
01 Dec 4.5 12:54:37 38° E 12:54:37 38° E 12:58:12 10° SSE visible
01 Dec 5.4 14:30:37 12° W 14:31:14 13° WSW 14:33:02 10° SW visible
02 Dec 4.3 12:54:34 45° ESE 12:54:34 45° ESE 12:58:04 10° SSE visible
02 Dec 5.7 14:31:00 10° WSW 14:31:04 10° WSW 14:31:09 10° WSW visible
03 Dec 4.1 12:54:29 52° SE 12:54:29 52° SE 12:57:53 10° SSE visible
04 Dec 4.0 12:54:23 54° SSE 12:54:23 54° SSE 12:57:40 10° S visible
05 Dec 4.1 12:54:16 51° S 12:54:16 51° S 12:57:24 10° S visible
06 Dec 4.3 12:54:07 44° SSW 12:54:07 44° SSW 12:57:06 10° S visible
07 Dec 4.5 12:53:57 38° SSW 12:53:57 38° SSW 12:56:46 10° S visible
08 Dec 4.8 12:53:46 32° SW 12:53:46 32° SW 12:56:23 10° S visible
